EW7070 Weather Reports


Display with metric or nautical units.
time (UTC)temp
F
wind
direction
speed
MPH
gust
MPH
rain 1hr
in
rain 24hr
in
rain mn
in
humidity
%
barometer
mb
20260905083554 50 182 0.0 1.0 0.00 0.00 0.00 98 1016.4
20260905083318 50 255 0.0 0.0 0.00 0.00 0.00 98 1016.3
20260905082523 50 255 0.0 0.0 0.00 0.00 0.00 98 1016.2
20260905082020 50 255 0.0 0.0 0.00 0.00 0.00 98 1016.3
20260905081516 50 255 0.0 0.0 0.00 0.00 0.00 98 1016.1
20260905081508 50 255 0.0 0.0 0.00 0.00 0.00 98 1016.1
20260905080736 49 255 0.0 0.0 0.00 0.00 0.00 97 1016.2
20260905080618 49 255 0.0 0.0 0.00 0.00 0.00 97 1016.2
20260905075440 49 255 0.0 0.0 0.00 0.00 0.00 97 1016.2
20260905074915 49 255 0.0 0.0 0.00 0.00 0.00 98 1016.1
20260905074412 49 255 0.0 0.0 0.00 0.00 0.00 97 1016.1
20260905073845 49 255 0.0 1.0 0.00 0.00 0.00 97 1016.0
20260905073343 49 255 0.0 1.0 0.00 0.00 0.00 97 1015.9
20260905072820 48 255 0.0 0.0 0.00 0.00 0.00 97 1016.0
20260905072248 48 255 0.0 0.0 0.00 0.00 0.00 97 1016.0
20260905071747 48 255 0.0 0.0 0.00 0.00 0.00 97 1016.0
20260905071224 48 255 0.0 0.0 0.00 0.00 0.00 97 1016.0
20260905070716 48 255 0.0 0.0 0.00 0.00 0.00 97 1016.0
20260905070218 48 255 0.0 1.0 0.00 0.00 0.00 97 1015.9
20260905065713 48 255 0.0 1.0 0.00 0.00 0.00 97 1016.0
20260905065212 48 255 0.0 0.0 0.00 0.00 0.00 97 1015.9
20260905064708 48 255 0.0 0.0 0.00 0.00 0.00 97 1015.9
20260905064206 48 255 0.0 0.0 0.00 0.00 0.00 97 1015.9
20260905063658 48 255 0.0 0.0 0.00 0.00 0.00 97 1015.8
20260905063200 48 255 0.0 0.0 0.00 0.00 0.00 97 1015.8
20260905062905 48 255 0.0 0.0 0.00 0.00 0.00 97 1015.7
20260905062112 48 255 0.0 0.0 0.00 0.00 0.00 97 1015.8
20260905061839 48 255 0.0 0.0 0.00 0.00 0.00 97 1015.9
20260905061041 48 255 0.0 0.0 0.00 0.00 0.00 97 1016.0
20260905060540 48 255 0.0 1.0 0.00 0.00 0.00 97 1016.1
20260905060010 48 255 0.0 1.0 0.00 0.00 0.00 96 1016.1
20260905055736 48 255 0.0 1.0 0.00 0.00 0.00 96 1016.0
20260905055209 48 255 0.0 1.0 0.00 0.00 0.00 96 1016.2
20260905054438 48 255 0.0 0.0 0.00 0.00 0.00 96 1016.2
20260905053936 48 255 0.0 0.0 0.00 0.00 0.00 96 1016.2
20260905053434 48 255 0.0 0.0 0.00 0.00 0.00 96 1015.9
20260905053203 48 255 0.0 1.0 0.00 0.00 0.00 96 1016.0
20260905052431 48 255 0.0 1.0 0.00 0.00 0.00 96 1015.9
20260905051932 48 255 0.0 1.0 0.00 0.00 0.00 96 1016.0
20260905051403 48 255 0.0 0.0 0.00 0.00 0.00 96 1015.9
20260905050852 48 255 0.0 0.0 0.00 0.00 0.00 96 1015.9
20260905050351 49 255 0.0 0.0 0.00 0.00 0.00 96 1016.0
20260905045826 49 255 0.0 0.0 0.00 0.00 0.00 96 1016.0
20260905045528 48 255 0.0 0.0 0.00 0.00 0.00 96 1016.0
20260905044726 48 255 0.0 0.0 0.00 0.00 0.00 96 1016.0
20260905044200 48 255 0.0 0.0 0.00 0.00 0.00 96 1016.2
20260905043657 48 255 0.0 0.0 0.00 0.00 0.00 95 1016.1
20260905043150 48 255 0.0 0.0 0.00 0.00 0.00 95 1016.1
20260905042644 48 255 0.0 0.0 0.00 0.00 0.00 95 1016.1
20260905042635 48 255 0.0 0.0 0.00 0.00 0.00 96 1016.2
20260905041905 49 255 0.0 0.0 0.00 0.00 0.00 95 1016.2
20260905041612 49 255 0.0 0.0 0.00 0.00 0.00 95 1016.1
20260905040546 48 255 0.0 0.0 0.00 0.00 0.00 95 1016.1
20260905040013 48 255 0.0 1.0 0.00 0.00 0.00 94 1015.9
20260905035739 49 255 0.0 1.0 0.00 0.00 0.00 95 1016.0
20260905034942 49 255 0.0 0.0 0.00 0.00 0.00 94 1016.1
20260905034415 49 255 0.0 0.0 0.00 0.00 0.00 94 1016.2
20260905033904 49 255 0.0 0.0 0.00 0.00 0.00 94 1016.1
20260905033402 49 255 0.0 0.0 0.00 0.00 0.00 94 1016.0
20260905032858 49 255 0.0 0.0 0.00 0.00 0.00 94 1015.9
20260905032345 49 255 0.0 0.0 0.00 0.00 0.00 94 1016.0
20260905031830 50 257 0.0 0.0 0.00 0.00 0.00 94 1016.1
20260905031330 50 258 0.0 0.0 0.00 0.00 0.00 94 1016.2
20260905031102 50 257 0.0 0.0 0.00 0.00 0.00 95 1016.1
20260905030331 50 258 0.0 0.0 0.00 0.00 0.00 95 1016.1
20260905025822 51 258 1.0 2.0 0.00 0.00 0.00 95 1016.2
20260905025552 51 258 1.0 2.0 0.00 0.00 0.00 95 1016.2
20260905024822 51 258 0.0 2.0 0.00 0.00 0.00 94 1016.1
20260905024318 50 258 0.0 0.0 0.00 0.00 0.00 94 1016.0
20260905023757 50 258 0.0 0.0 0.00 0.00 0.00 94 1016.2
20260905023226 51 258 0.0 0.0 0.00 0.00 0.00 93 1016.0
20260905022725 51 257 0.0 0.0 0.00 0.00 0.00 93 1016.1
20260905022222 51 257 0.0 0.0 0.00 0.00 0.00 93 1016.1
20260905021722 51 258 0.0 0.0 0.00 0.00 0.00 93 1016.1
20260905021201 51 258 0.0 0.0 0.00 0.00 0.00 92 1016.0
20260905020647 51 258 0.0 0.0 0.00 0.00 0.00 93 1016.0
20260905020143 51 253 0.0 0.0 0.00 0.00 0.00 92 1016.1
20260905015640 52 253 0.0 2.0 0.00 0.00 0.00 92 1016.1
20260905015140 52 253 0.0 2.0 0.00 0.00 0.00 92 1016.1
20260905014639 52 253 0.0 1.0 0.00 0.00 0.00 92 1016.2
20260905014342 52 253 0.0 0.0 0.00 0.00 0.00 92 1016.0
20260905013604 52 253 0.0 0.0 0.00 0.00 0.00 92 1016.1
20260905013101 52 253 0.0 0.0 0.00 0.00 0.00 92 1016.1
20260905012601 53 253 0.0 0.0 0.00 0.00 0.00 92 1016.0
20260905012059 53 253 0.0 1.0 0.00 0.00 0.00 92 1015.9
20260905011533 53 253 1.0 1.0 0.00 0.00 0.00 92 1016.0
20260905011033 53 253 1.0 2.0 0.00 0.00 0.00 92 1016.0
20260905010527 53 253 0.0 2.0 0.00 0.00 0.00 92 1016.1
20260905010026 53 253 0.0 0.0 0.00 0.00 0.00 91 1016.1
20260905005522 54 253 0.0 2.0 0.00 0.00 0.00 91 1016.0
20260905005021 54 253 0.0 2.0 0.00 0.00 0.00 91 1015.9
20260905004726 54 133 0.0 1.0 0.00 0.00 0.00 91 1015.9
20260905003946 54 133 1.0 2.0 0.00 0.00 0.00 92 1015.9
20260905003445 54 151 1.0 2.0 0.00 0.00 0.00 92 1015.7
20260905002940 54 177 1.0 3.0 0.00 0.00 0.00 92 1015.5
20260905002438 54 103 1.0 4.0 0.00 0.00 0.00 92 1015.6
20260905001933 54 187 1.0 4.0 0.00 0.00 0.00 92 1015.6
20260905001422 54 241 0.0 1.0 0.00 0.00 0.00 90 1015.5
20260905000901 54 241 0.0 0.0 0.00 0.00 0.00 90 1015.4
20260905000348 55 241 0.0 0.0 0.00 0.00 0.00 90 1015.4
20260904235851 55 241 0.0 0.0 0.00 0.00 0.00 90 1015.4
20260904235345 55 241 0.0 0.0 0.00 0.00 0.00 89 1015.4
20260904235114 55 241 0.0 0.0 0.00 0.00 0.00 89 1015.4
20260904234334 55 241 0.0 1.0 0.00 0.00 0.00 90 1015.3
20260904233808 55 241 0.0 1.0 0.00 0.00 0.00 90 1015.3
20260904233533 55 241 0.0 0.0 0.00 0.00 0.00 89 1015.3
20260904232759 55 241 0.0 0.0 0.00 0.00 0.00 88 1015.1
20260904232737 56 241 0.0 0.0 0.00 0.00 0.00 88 1015.2
20260904231958 56 241 0.0 0.0 0.00 0.00 0.00 88 1015.2
20260904231222 56 241 0.0 1.0 0.00 0.00 0.00 88 1015.1
20260904230723 56 241 0.0 1.0 0.00 0.00 0.00 89 1015.0
20260904230451 56 241 0.0 1.0 0.00 0.00 0.00 88 1015.0
20260904225653 56 241 0.0 1.0 0.00 0.00 0.00 87 1014.8
20260904225134 57 241 0.0 0.0 0.00 0.00 0.00 86 1014.9
20260904224635 57 241 0.0 0.0 0.00 0.00 0.00 86 1014.7
20260904224134 57 241 0.0 1.0 0.00 0.00 0.00 86 1014.7
20260904223634 57 241 0.0 2.0 0.00 0.00 0.00 86 1014.7
20260904223131 58 241 1.0 2.0 0.00 0.00 0.00 86 1014.5
20260904222620 58 235 1.0 2.0 0.00 0.00 0.00 85 1014.4
20260904222121 58 187 1.0 2.0 0.00 0.00 0.00 84 1014.3
20260904221553 59 182 0.0 2.0 0.00 0.00 0.00 83 1014.5
20260904221320 59 243 0.0 0.0 0.00 0.00 0.00 81 1014.4
20260904220546 59 243 0.0 0.0 0.00 0.00 0.00 81 1014.2
20260904220035 60 243 0.0 0.0 0.00 0.00 0.00 81 1014.2
20260904215508 60 243 0.0 0.0 0.00 0.00 0.00 80 1014.0
20260904214939 61 243 0.0 0.0 0.00 0.00 0.00 79 1014.2
20260904214433 61 243 0.0 0.0 0.00 0.00 0.00 77 1014.2
20260904213910 61 243 0.0 0.0 0.00 0.00 0.00 76 1014.3
20260904213608 62 243 0.0 0.0 0.00 0.00 0.00 77 1014.2
20260904212832 62 243 0.0 0.0 0.00 0.00 0.00 76 1014.3
20260904212312 63 243 0.0 0.0 0.00 0.00 0.00 74 1014.2
20260904211810 63 243 0.0 0.0 0.00 0.00 0.00 74 1014.2
20260904211308 64 243 0.0 0.0 0.00 0.00 0.00 74 1014.3
20260904210808 65 243 0.0 1.0 0.00 0.00 0.00 71 1014.1
20260904210302 65 243 1.0 2.0 0.00 0.00 0.00 72 1014.0
20260904205800 65 243 1.0 2.0 0.00 0.00 0.00 71 1014.1
20260904205231 66 243 1.0 2.0 0.00 0.00 0.00 70 1014.0
20260904204703 67 243 1.0 2.0 0.00 0.00 0.00 68 1014.0
20260904204201 67 243 1.0 2.0 0.00 0.00 0.00 64 1013.9
20260904203654 68 239 1.0 3.0 0.00 0.00 0.00 60 1013.8
20260904203152 69 226 1.0 3.0 0.00 0.00 0.00 58 1013.8
20260904202650 69 241 1.0 4.0 0.00 0.00 0.00 57 1013.8
20260904202122 70 235 1.0 4.0 0.00 0.00 0.00 55 1013.7
20260904201820 71 250 1.0 3.0 0.00 0.00 0.00 54 1013.9
20260904201048 71 238 1.0 3.0 0.00 0.00 0.00 52 1013.8
20260904200533 71 254 1.0 4.0 0.00 0.00 0.00 54 1013.6
20260904200036 71 270 1.0 4.0 0.00 0.00 0.00 55 1013.7
20260904195518 71 267 2.0 4.0 0.00 0.00 0.00 51 1013.7
20260904195248 71 231 1.0 4.0 0.00 0.00 0.00 53 1013.6
20260904194519 71 259 0.0 2.0 0.00 0.00 0.00 53 1013.6
20260904193954 71 141 1.0 4.0 0.00 0.00 0.00 53 1013.6
20260904193427 71 150 1.0 4.0 0.00 0.00 0.00 51 1013.5
20260904192915 71 182 1.0 4.0 0.00 0.00 0.00 52 1013.6
20260904192351 70 344 1.0 3.0 0.00 0.00 0.00 54 1013.5
20260904191828 70 339 1.0 3.0 0.00 0.00 0.00 54 1013.4
20260904191324 69 270 1.0 3.0 0.00 0.00 0.00 55 1013.3
20260904190826 69 115 1.0 4.0 0.00 0.00 0.00 53 1013.4
20260904190300 69 199 1.0 4.0 0.00 0.00 0.00 53 1013.3
20260904185734 69 145 0.0 4.0 0.00 0.00 0.00 56 1013.1
20260904185233 69 158 0.0 0.0 0.00 0.00 0.00 56 1013.5
20260904184733 69 43 0.0 0.0 0.00 0.00 0.00 57 1013.4
20260904184232 68 43 0.0 0.0 0.00 0.00 0.00 56 1013.4
20260904183731 68 40 0.0 0.0 0.00 0.00 0.00 57 1013.4
20260904183228 68 210 0.0 2.0 0.00 0.00 0.00 56 1013.3
20260904182725 68 222 1.0 2.0 0.00 0.00 0.00 56 1013.5
20260904182700 67 89 1.0 2.0 0.00 0.00 0.00 58 1013.5
20260904181632 67 153 1.0 4.0 0.00 0.00 0.00 57 1013.7
20260904181402 67 187 2.0 4.0 0.00 0.00 0.00 56 1013.7
20260904180624 67 168 2.0 4.0 0.00 0.00 0.00 56 1013.7
20260904180121 68 217 2.0 4.0 0.00 0.00 0.00 61 1013.9
20260904175553 68 253 2.0 7.0 0.00 0.00 0.00 60 1013.8
20260904175051 68 256 2.0 7.0 0.00 0.00 0.00 59 1013.9
20260904174544 68 262 1.0 5.0 0.00 0.00 0.00 59 1013.9
20260904174040 68 22 1.0 3.0 0.00 0.00 0.00 59 1013.9
20260904173530 67 216 1.0 5.0 0.00 0.00 0.00 59 1013.8
20260904173300 67 164 1.0 5.0 0.00 0.00 0.00 59 1013.8
20260904172526 67 274 2.0 5.0 0.00 0.00 0.00 59 1014.0
20260904172014 67 138 2.0 5.0 0.00 0.00 0.00 57 1013.9
20260904171509 67 250 2.0 5.0 0.00 0.00 0.00 58 1013.8
20260904170959 68 223 2.0 3.0 0.00 0.00 0.00 60 1013.9
20260904170726 68 237 2.0 7.0 0.00 0.00 0.00 57 1014.1
20260904165953 68 162 2.0 7.0 0.00 0.00 0.00 57 1014.2
20260904165434 68 187 1.0 5.0 0.00 0.00 0.00 58 1014.4
20260904165425 68 280 1.0 5.0 0.00 0.00 0.00 59 1014.3
20260904165036 68 351 2.0 4.0 0.00 0.00 0.00 59 1014.5
20260904163924 67 269 2.0 5.0 0.00 0.00 0.00 58 1014.5
20260904163427 68 195 2.0 4.0 0.00 0.00 0.00 57 1014.5
20260904162900 68 246 2.0 6.0 0.00 0.00 0.00 58 1014.5
20260904162358 68 235 2.0 6.0 0.00 0.00 0.00 57 1014.6
20260904161846 67 295 2.0 6.0 0.00 0.00 0.00 57 1014.5
20260904161343 68 253 3.0 6.0 0.00 0.00 0.00 56 1014.6
20260904161319 68 255 3.0 6.0 0.00 0.00 0.00 57 1014.6
20260904160249 68 151 2.0 6.0 0.00 0.00 0.00 55 1014.6
20260904155724 69 195 2.0 6.0 0.00 0.00 0.00 54 1014.7
20260904155155 69 213 1.0 5.0 0.00 0.00 0.00 55 1014.7
20260904154647 69 224 1.0 4.0 0.00 0.00 0.00 59 1014.6
20260904154118 68 113 2.0 7.0 0.00 0.00 0.00 58 1014.6
20260904153616 68 237 3.0 9.0 0.00 0.00 0.00 56 1014.7
20260904153104 68 278 3.0 9.0 0.00 0.00 0.00 58 1014.7
20260904152604 68 236 3.0 8.0 0.00 0.00 0.00 58 1014.8
20260904152059 68 216 3.0 8.0 0.00 0.00 0.00 57 1014.9
20260904151555 68 268 3.0 9.0 0.00 0.00 0.00 56 1014.9
20260904151044 67 240 3.0 9.0 0.00 0.00 0.00 57 1015.0
20260904150539 67 206 3.0 6.0 0.00 0.00 0.00 59 1015.0
20260904150040 67 297 3.0 6.0 0.00 0.00 0.00 59 1015.0
20260904145533 67 280 3.0 8.0 0.00 0.00 0.00 59 1015.0
20260904145033 67 289 3.0 8.0 0.00 0.00 0.00 59 1015.1
20260904144531 67 301 2.0 7.0 0.00 0.00 0.00 58 1015.1
20260904144033 67 280 2.0 7.0 0.00 0.00 0.00 58 1015.0
20260904143509 67 264 2.0 9.0 0.00 0.00 0.00 57 1015.2
20260904143224 67 201 1.0 8.0 0.00 0.00 0.00 60 1015.1
20260904142722 67 320 1.0 5.0 0.00 0.00 0.00 60 1015.1
20260904141951 67 294 1.0 4.0 0.00 0.00 0.00 62 1015.2
20260904141448 67 262 2.0 5.0 0.00 0.00 0.00 57 1015.2
20260904140918 67 238 3.0 5.0 0.00 0.00 0.00 60 1015.4
20260904140907 67 159 2.0 5.0 0.00 0.00 0.00 59 1015.5
20260904135844 67 307 2.0 6.0 0.00 0.00 0.00 59 1015.5
20260904135328 67 253 2.0 6.0 0.00 0.00 0.00 59 1015.7
20260904135058 67 144 2.0 6.0 0.00 0.00 0.00 58 1015.9
20260904134300 67 125 2.0 6.0 0.00 0.00 0.00 56 1015.9
20260904133757 67 29 2.0 6.0 0.00 0.00 0.00 57 1015.9
20260904133515 66 148 2.0 5.0 0.00 0.00 0.00 65 1016.0
20260904133015 66 133 2.0 5.0 0.00 0.00 0.00 59 1016.1
20260904132223 65 151 2.0 9.0 0.00 0.00 0.00 60 1016.1
20260904131722 66 126 2.0 9.0 0.00 0.00 0.00 60 1016.1
20260904131438 65 113 2.0 7.0 0.00 0.00 0.00 63 1016.1
20260904130649 65 187 2.0 7.0 0.00 0.00 0.00 63 1016.3
20260904130148 65 126 3.0 8.0 0.00 0.00 0.00 67 1016.3
20260904125621 65 97 3.0 8.0 0.00 0.00 0.00 71 1016.5
20260904125556 64 93 2.0 6.0 0.00 0.00 0.00 69 1016.6
20260904124532 64 177 2.0 4.0 0.00 0.00 0.00 71 1016.7
20260904124024 64 222 1.0 8.0 0.00 0.00 0.00 72 1016.6
20260904123523 63 177 2.0 8.0 0.00 0.00 0.00 82 1016.7
20260904123252 63 115 3.0 8.0 0.00 0.00 0.00 80 1016.6
20260904122519 63 137 3.0 8.0 0.00 0.00 0.00 82 1016.7
20260904122015 62 85 2.0 6.0 0.00 0.00 0.00 85 1016.8
20260904121450 62 60 1.0 4.0 0.00 0.00 0.00 87 1016.7
20260904120931 61 128 3.0 4.0 0.00 0.00 0.00 88 1016.5
20260904120923 61 39 2.0 4.0 0.00 0.00 0.00 88 1016.7
20260904120127 60 98 2.0 6.0 0.00 0.00 0.00 88 1016.4
20260904115330 60 110 3.0 6.0 0.00 0.00 0.00 88 1016.5
20260904114819 60 102 2.0 5.0 0.00 0.00 0.00 89 1016.4
20260904114319 60 120 1.0 3.0 0.00 0.00 0.00 92 1016.5
20260904114027 60 103 1.0 3.0 0.00 0.00 0.00 94 1016.5
20260904113247 59 150 1.0 3.0 0.00 0.00 0.00 95 1016.5
20260904112736 59 127 1.0 3.0 0.00 0.00 0.00 96 1016.3
20260904112208 59 114 1.0 3.0 0.00 0.00 0.00 97 1016.3
20260904111707 58 120 1.0 3.0 0.00 0.00 0.00 98 1016.3
20260904111135 58 158 0.0 2.0 0.00 0.00 0.00 98 1016.5
20260904110634 58 303 0.0 1.0 0.00 0.00 0.00 98 1016.4
20260904110110 57 303 0.0 0.0 0.00 0.00 0.00 98 1016.4
20260904105600 56 303 0.0 0.0 0.00 0.00 0.00 97 1016.4
20260904105036 55 303 0.0 1.0 0.00 0.00 0.00 97 1016.5
20260904104742 55 303 0.0 1.0 0.00 0.00 0.00 96 1016.5
20260904103943 54 303 0.0 0.0 0.00 0.00 0.00 96 1016.4
20260904103441 54 303 0.0 0.0 0.00 0.00 0.00 96 1016.5
20260904102939 54 303 0.0 0.0 0.00 0.00 0.00 95 1016.3
20260904102430 54 303 0.0 0.0 0.00 0.00 0.00 95 1016.3
20260904101918 54 303 0.0 0.0 0.00 0.00 0.00 95 1016.4
20260904101419 54 303 0.0 0.0 0.00 0.00 0.00 95 1016.3
20260904100928 54 303 0.0 0.0 0.00 0.00 0.00 94 1016.2
20260904100919 54 303 0.0 0.0 0.00 0.00 0.00 94 1016.3
20260904095909 54 303 0.0 0.0 0.00 0.00 0.00 94 1016.0
20260904095407 54 303 0.0 0.0 0.00 0.00 0.00 94 1016.0
20260904094906 54 303 0.0 0.0 0.00 0.00 0.00 93 1016.0
20260904094404 55 303 0.0 0.0 0.00 0.00 0.00 93 1015.8
20260904094129 55 303 0.0 0.0 0.00 0.00 0.00 93 1015.7
20260904093559 55 303 0.0 0.0 0.00 0.00 0.00 93 1015.7
20260904092825 56 303 0.0 0.0 0.00 0.00 0.00 93 1015.7
20260904092529 56 303 0.0 0.0 0.00 0.00 0.00 92 1015.3
20260904091738 56 303 0.0 0.0 0.00 0.00 0.00 92 1015.3
20260904091237 56 303 0.0 0.0 0.00 0.00 0.00 92 1015.3
20260904090942 57 303 0.0 1.0 0.00 0.00 0.00 92 1015.2
20260904090147 57 303 1.0 2.0 0.00 0.00 0.00 92 1015.3
20260904085646 58 303 1.0 2.0 0.00 0.00 0.00 92 1015.2
20260904085144 58 262 0.0 1.0 0.00 0.00 0.00 93 1015.0
20260904084621 58 262 0.0 1.0 0.00 0.00 0.00 92 1014.9
20260904084121 58 262 0.0 1.0 0.00 0.00 0.00 92 1015.0
20260904083853 59 262 0.0 1.0 0.00 0.00 0.00 92 1015.0